TimeCDT,TemperatureF,Dew PointF,Humidity,Sea Level PressureIn,VisibilityMPH,Wind Direction,Wind SpeedMPH,Gust SpeedMPH,PrecipitationIn,Events,Conditions,WindDirDegrees,DateUTC
12:27 AM,77.0,62.6,61,29.88,-9999.0,WSW,19.6,27.6,N/A,Thunderstorm,Thunderstorm,240,2012-07-01 05:27:00
12:45 AM,75.2,62.6,65,29.91,9.0,SW,10.4,-,N/A,Rain,Light Rain,220,2012-07-01 05:45:00
12:53 AM,73.9,64.0,71,29.88,9.0,WSW,11.5,-,N/A,Rain,Light Rain,240,2012-07-01 05:53:00
1:53 AM,75.2,64.4,69,29.84,10.0,SSE,9.2,-,N/A,,Scattered Clouds,150,2012-07-01 06:53:00
2:53 AM,73.9,64.0,71,29.80,10.0,Calm,Calm,-,N/A,,Partly Cloudy,0,2012-07-01 07:53:00
3:53 AM,73.9,64.9,73,29.81,10.0,South,8.1,18.4,N/A,,Clear,180,2012-07-01 08:53:00
4:53 AM,75.0,64.9,71,29.84,10.0,Calm,Calm,-,N/A,,Clear,0,2012-07-01 09:53:00
5:53 AM,73.9,66.9,79,29.87,10.0,Calm,Calm,-,N/A,,Clear,0,2012-07-01 10:53:00
6:53 AM,73.0,66.9,81,29.88,10.0,Calm,Calm,-,N/A,,Clear,0,2012-07-01 11:53:00
7:53 AM,75.9,68.0,76,29.91,10.0,Calm,Calm,-,N/A,,Clear,0,2012-07-01 12:53:00
8:53 AM,79.0,69.1,72,29.91,10.0,South,4.6,-,N/A,,Clear,190,2012-07-01 13:53:00
9:53 AM,82.4,69.8,66,29.95,10.0,SSW,5.8,-,N/A,,Clear,200,2012-07-01 14:53:00
10:53 AM,84.0,69.1,61,29.94,10.0,SW,5.8,-,N/A,,Clear,220,2012-07-01 15:53:00
11:53 AM,87.1,70.0,57,29.94,10.0,South,5.8,-,N/A,,Clear,190,2012-07-01 16:53:00
12:53 PM,89.6,71.6,55,29.95,10.0,South,5.8,-,N/A,,Clear,170,2012-07-01 17:53:00
1:53 PM,91.0,72.0,53,29.91,10.0,SSE,6.9,-,N/A,,Clear,160,2012-07-01 18:53:00
2:53 PM,93.9,71.1,47,29.89,10.0,South,8.1,-,N/A,,Clear,170,2012-07-01 19:53:00
3:53 PM,95.0,69.1,43,29.87,10.0,South,9.2,-,N/A,,Clear,180,2012-07-01 20:53:00
4:53 PM,93.9,70.0,46,29.86,10.0,South,6.9,-,N/A,,Clear,180,2012-07-01 21:53:00
5:53 PM,93.0,71.1,49,29.84,10.0,South,4.6,-,N/A,,Clear,170,2012-07-01 22:53:00
6:53 PM,90.0,71.1,54,29.84,10.0,SSW,4.6,-,N/A,,Clear,200,2012-07-01 23:53:00
7:53 PM,87.1,72.0,61,29.84,10.0,South,5.8,-,N/A,,Clear,170,2012-07-02 00:53:00
8:53 PM,82.0,70.0,67,29.85,10.0,South,5.8,-,N/A,,Clear,180,2012-07-02 01:53:00
9:53 PM,80.1,69.1,69,29.87,10.0,South,6.9,-,N/A,,Clear,180,2012-07-02 02:53:00
10:53 PM,77.0,68.0,74,29.89,10.0,Calm,Calm,-,N/A,,Clear,0,2012-07-02 03:53:00
11:53 PM,75.9,68.0,76,29.90,10.0,Calm,Calm,-,N/A,,Clear,0,2012-07-02 04:53:00